| time (UTC) | temp F | wind direction | speed MPH | gust MPH | rain 1hr in | rain 24hr in | rain mn in | humidity % | barometer mb |
| 20260505123144 | 71 | 182 | 7.0 | 13.0 | 0.00 | 0.00 | 0.00 | 88 | 1006.4 |
| 20260505122219 | 71 | 221 | 6.0 | 15.0 | 0.00 | 0.00 | 0.00 | 88 | 1006.3 |
| 20260505121200 | 71 | 184 | 6.0 | 14.0 | 0.00 | 0.00 | 0.00 | 88 | 1006.3 |
| 20260505120157 | 71 | 174 | 7.0 | 14.0 | 0.00 | 0.00 | 0.00 | 88 | 1006.1 |
| 20260505115133 | 71 | 164 | 7.0 | 19.0 | 0.00 | 0.00 | 0.00 | 88 | 1005.9 |
| 20260505114204 | 71 | 178 | 6.0 | 16.0 | 0.00 | 0.00 | 0.00 | 87 | 1005.9 |
| 20260505113219 | 71 | 234 | 8.0 | 15.0 | 0.00 | 0.00 | 0.00 | 87 | 1005.9 |
| 20260505112150 | 71 | 183 | 5.0 | 12.0 | 0.00 | 0.00 | 0.00 | 87 | 1005.9 |
| 20260505111203 | 71 | 148 | 5.0 | 12.0 | 0.00 | 0.00 | 0.00 | 87 | 1005.9 |
| 20260505110917 | 71 | 162 | 6.0 | 20.0 | 0.00 | 0.00 | 0.00 | 87 | 1006.0 |
| 20260505110129 | 71 | 159 | 9.0 | 20.0 | 0.00 | 0.00 | 0.00 | 87 | 1006.0 |
| 20260505102221 | 70 | 200 | 3.0 | 15.0 | 0.00 | 0.00 | 0.00 | 87 | 1005.8 |
| 20260505101149 | 70 | 275 | 6.0 | 15.0 | 0.00 | 0.00 | 0.00 | 87 | 1005.7 |
| 20260505100213 | 70 | 208 | 7.0 | 20.0 | 0.00 | 0.00 | 0.00 | 87 | 1005.8 |
| 20260505095243 | 70 | 238 | 5.0 | 14.0 | 0.00 | 0.00 | 0.00 | 87 | 1005.7 |
| 20260505094145 | 70 | 183 | 5.0 | 21.0 | 0.00 | 0.00 | 0.00 | 87 | 1005.6 |
| 20260505093207 | 69 | 225 | 6.0 | 13.0 | 0.00 | 0.00 | 0.00 | 87 | 1005.7 |
| 20260505092134 | 69 | 279 | 6.0 | 16.0 | 0.00 | 0.00 | 0.00 | 87 | 1005.8 |
| 20260505091204 | 69 | 171 | 4.0 | 15.0 | 0.00 | 0.00 | 0.00 | 87 | 1005.8 |
| 20260505090132 | 69 | 173 | 6.0 | 19.0 | 0.00 | 0.00 | 0.00 | 87 | 1006.0 |
| 20260505085215 | 69 | 198 | 7.0 | 21.0 | 0.00 | 0.00 | 0.00 | 87 | 1006.1 |
| 20260505084224 | 69 | 178 | 7.0 | 15.0 | 0.00 | 0.00 | 0.00 | 87 | 1006.3 |
| 20260505083131 | 69 | 191 | 4.0 | 12.0 | 0.00 | 0.00 | 0.00 | 87 | 1006.3 |
| 20260505082159 | 69 | 202 | 4.0 | 10.0 | 0.00 | 0.00 | 0.00 | 87 | 1006.4 |
| 20260505081239 | 69 | 200 | 3.0 | 11.0 | 0.00 | 0.00 | 0.00 | 87 | 1006.5 |
| 20260505080923 | 69 | 105 | 5.0 | 11.0 | 0.00 | 0.00 | 0.00 | 87 | 1006.5 |
| 20260505080225 | 69 | 213 | 6.0 | 11.0 | 0.00 | 0.00 | 0.00 | 87 | 1006.5 |
| 20260505072201 | 69 | 160 | 4.0 | 12.0 | 0.00 | 0.00 | 0.00 | 86 | 1007.0 |
| 20260505071224 | 69 | 211 | 5.0 | 19.0 | 0.00 | 0.00 | 0.00 | 85 | 1007.3 |
| 20260505070142 | 69 | 200 | 3.0 | 10.0 | 0.00 | 0.00 | 0.00 | 85 | 1007.2 |
| 20260505065154 | 69 | 191 | 5.0 | 15.0 | 0.00 | 0.00 | 0.00 | 85 | 1007.2 |
| 20260505064140 | 70 | 242 | 5.0 | 15.0 | 0.00 | 0.00 | 0.00 | 84 | 1007.3 |
| 20260505063128 | 70 | 266 | 5.0 | 13.0 | 0.00 | 0.00 | 0.00 | 84 | 1007.5 |
| 20260505062126 | 70 | 205 | 4.0 | 14.0 | 0.00 | 0.00 | 0.00 | 84 | 1007.7 |
| 20260505061133 | 70 | 203 | 4.0 | 10.0 | 0.00 | 0.00 | 0.00 | 83 | 1007.6 |
| 20260505060152 | 70 | 234 | 5.0 | 15.0 | 0.00 | 0.00 | 0.00 | 82 | 1007.7 |
| 20260505055139 | 70 | 190 | 5.0 | 10.0 | 0.00 | 0.00 | 0.00 | 82 | 1007.6 |
| 20260505054125 | 71 | 167 | 4.0 | 13.0 | 0.00 | 0.00 | 0.00 | 82 | 1007.8 |
| 20260505053133 | 71 | 159 | 4.0 | 10.0 | 0.00 | 0.00 | 0.00 | 81 | 1007.8 |
| 20260505052146 | 71 | 200 | 5.0 | 11.0 | 0.00 | 0.00 | 0.00 | 81 | 1007.8 |
| 20260505051135 | 71 | 180 | 5.0 | 13.0 | 0.00 | 0.00 | 0.00 | 80 | 1007.9 |
| 20260505050835 | 71 | 189 | 6.0 | 13.0 | 0.00 | 0.00 | 0.00 | 80 | 1008.0 |
| 20260505050139 | 71 | 178 | 3.0 | 14.0 | 0.00 | 0.00 | 0.00 | 80 | 1008.0 |
| 20260505041209 | 73 | 109 | 5.0 | 11.0 | 0.00 | 0.00 | 0.00 | 77 | 1008.0 |
| 20260505040217 | 73 | 198 | 4.0 | 13.0 | 0.00 | 0.00 | 0.00 | 76 | 1008.0 |
| 20260505035133 | 73 | 200 | 3.0 | 10.0 | 0.00 | 0.00 | 0.00 | 75 | 1008.0 |
| 20260505034209 | 73 | 197 | 4.0 | 12.0 | 0.00 | 0.00 | 0.00 | 74 | 1008.0 |
| 20260505033136 | 73 | 195 | 4.0 | 7.0 | 0.00 | 0.00 | 0.00 | 73 | 1007.9 |
| 20260505032217 | 73 | 226 | 4.0 | 9.0 | 0.00 | 0.00 | 0.00 | 73 | 1007.8 |
| 20260505031145 | 74 | 200 | 2.0 | 9.0 | 0.00 | 0.00 | 0.00 | 72 | 1007.7 |
| 20260505030214 | 74 | 176 | 3.0 | 10.0 | 0.00 | 0.00 | 0.00 | 71 | 1007.7 |
| 20260505025216 | 74 | 209 | 5.0 | 10.0 | 0.00 | 0.00 | 0.00 | 70 | 1007.6 |
| 20260505024153 | 74 | 221 | 2.0 | 8.0 | 0.00 | 0.00 | 0.00 | 70 | 1007.5 |
| 20260505023218 | 74 | 206 | 4.0 | 9.0 | 0.00 | 0.00 | 0.00 | 69 | 1007.7 |
| 20260505022133 | 75 | 200 | 3.0 | 10.0 | 0.00 | 0.00 | 0.00 | 68 | 1007.7 |
| 20260505021153 | 75 | 192 | 2.0 | 8.0 | 0.00 | 0.00 | 0.00 | 68 | 1007.8 |
| 20260505020200 | 75 | 153 | 2.0 | 7.0 | 0.00 | 0.00 | 0.00 | 67 | 1007.7 |
| 20260505015129 | 75 | 164 | 2.0 | 9.0 | 0.00 | 0.00 | 0.00 | 66 | 1007.7 |
| 20260505014205 | 76 | 206 | 4.0 | 9.0 | 0.00 | 0.00 | 0.00 | 65 | 1007.6 |
| 20260505013131 | 76 | 206 | 3.0 | 9.0 | 0.00 | 0.00 | 0.00 | 65 | 1007.5 |
| 20260505011154 | 77 | 172 | 4.0 | 8.0 | 0.00 | 0.00 | 0.00 | 63 | 1007.5 |
| 20260505010125 | 77 | 186 | 4.0 | 9.0 | 0.00 | 0.00 | 0.00 | 62 | 1007.5 |
| 20260505005159 | 77 | 184 | 3.0 | 7.0 | 0.00 | 0.00 | 0.00 | 61 | 1007.5 |
| 20260505004138 | 78 | 162 | 2.0 | 10.0 | 0.00 | 0.00 | 0.00 | 61 | 1007.3 |
| 20260505003207 | 78 | 202 | 6.0 | 10.0 | 0.00 | 0.00 | 0.00 | 59 | 1007.3 |
| 20260505002137 | 78 | 175 | 3.0 | 7.0 | 0.00 | 0.00 | 0.00 | 59 | 1007.4 |
| 20260505001206 | 79 | 186 | 3.0 | 11.0 | 0.00 | 0.00 | 0.00 | 58 | 1007.5 |
| 20260505000159 | 79 | 232 | 6.0 | 16.0 | 0.00 | 0.00 | 0.00 | 57 | 1007.6 |
| 20260504235233 | 80 | 217 | 5.0 | 16.0 | 0.00 | 0.00 | 0.00 | 57 | 1007.9 |
| 20260504234126 | 80 | 222 | 7.0 | 12.0 | 0.00 | 0.00 | 0.00 | 56 | 1007.9 |
| 20260504233200 | 81 | 180 | 3.0 | 18.0 | 0.00 | 0.00 | 0.00 | 56 | 1008.1 |
| 20260504232125 | 80 | 209 | 7.0 | 11.0 | 0.00 | 0.00 | 0.00 | 56 | 1008.0 |
| 20260504231158 | 81 | 148 | 5.0 | 11.0 | 0.00 | 0.00 | 0.00 | 55 | 1008.0 |
| 20260504230224 | 80 | 183 | 6.0 | 14.0 | 0.00 | 0.00 | 0.00 | 55 | 1008.0 |
| 20260504223148 | 81 | 121 | 5.0 | 19.0 | 0.00 | 0.00 | 0.00 | 54 | 1008.4 |
| 20260504222220 | 81 | 210 | 5.0 | 14.0 | 0.00 | 0.00 | 0.00 | 53 | 1008.4 |
| 20260504221144 | 82 | 320 | 6.0 | 13.0 | 0.00 | 0.00 | 0.00 | 52 | 1008.6 |
| 20260504220125 | 82 | 226 | 4.0 | 12.0 | 0.00 | 0.00 | 0.00 | 50 | 1008.6 |
| 20260504213258 | 81 | 257 | 6.0 | 13.0 | 0.00 | 0.00 | 0.00 | 50 | 1009.2 |
| 20260504212139 | 81 | 213 | 5.0 | 17.0 | 0.00 | 0.00 | 0.00 | 49 | 1009.5 |
| 20260504211211 | 81 | 306 | 2.0 | 14.0 | 0.00 | 0.00 | 0.00 | 49 | 1009.6 |
| 20260504210208 | 81 | 143 | 8.0 | 17.0 | 0.00 | 0.00 | 0.00 | 48 | 1009.9 |
| 20260504205243 | 81 | 285 | 9.0 | 18.0 | 0.00 | 0.00 | 0.00 | 48 | 1010.1 |
| 20260504204150 | 81 | 216 | 6.0 | 12.0 | 0.00 | 0.00 | 0.00 | 49 | 1010.3 |
| 20260504203125 | 81 | 150 | 6.0 | 12.0 | 0.00 | 0.00 | 0.00 | 50 | 1010.4 |
| 20260504202158 | 80 | 127 | 4.0 | 17.0 | 0.00 | 0.00 | 0.00 | 49 | 1010.5 |
| 20260504201144 | 80 | 169 | 3.0 | 15.0 | 0.00 | 0.00 | 0.00 | 49 | 1010.7 |
| 20260504200201 | 80 | 178 | 6.0 | 14.0 | 0.00 | 0.00 | 0.00 | 49 | 1010.8 |
| 20260504195131 | 80 | 235 | 3.0 | 17.0 | 0.00 | 0.00 | 0.00 | 49 | 1011.1 |
| 20260504194204 | 79 | 224 | 6.0 | 17.0 | 0.00 | 0.00 | 0.00 | 50 | 1011.2 |
| 20260504193212 | 79 | 193 | 8.0 | 15.0 | 0.00 | 0.00 | 0.00 | 49 | 1011.5 |
| 20260504192143 | 80 | 191 | 3.0 | 11.0 | 0.00 | 0.00 | 0.00 | 50 | 1011.6 |
| 20260504191207 | 79 | 228 | 6.0 | 12.0 | 0.00 | 0.00 | 0.00 | 51 | 1011.7 |
| 20260504190148 | 79 | 161 | 5.0 | 12.0 | 0.00 | 0.00 | 0.00 | 49 | 1012.0 |
| 20260504185214 | 79 | 40 | 3.0 | 10.0 | 0.00 | 0.00 | 0.00 | 49 | 1012.0 |
| 20260504184146 | 79 | 159 | 8.0 | 17.0 | 0.00 | 0.00 | 0.00 | 49 | 1012.0 |
| 20260504183219 | 79 | 150 | 7.0 | 11.0 | 0.00 | 0.00 | 0.00 | 51 | 1012.3 |
| 20260504181149 | 78 | 179 | 6.0 | 14.0 | 0.00 | 0.00 | 0.00 | 49 | 1012.7 |
| 20260504180135 | 78 | 254 | 5.0 | 12.0 | 0.00 | 0.00 | 0.00 | 51 | 1012.7 |
| 20260504175210 | 77 | 149 | 3.0 | 13.0 | 0.00 | 0.00 | 0.00 | 51 | 1012.8 |
| 20260504174134 | 77 | 143 | 7.0 | 13.0 | 0.00 | 0.00 | 0.00 | 50 | 1013.0 |
| 20260504173152 | 77 | 173 | 4.0 | 17.0 | 0.00 | 0.00 | 0.00 | 51 | 1013.4 |
| 20260504172221 | 76 | 177 | 6.0 | 18.0 | 0.00 | 0.00 | 0.00 | 51 | 1013.5 |
| 20260504171200 | 75 | 169 | 5.0 | 15.0 | 0.00 | 0.00 | 0.00 | 54 | 1013.5 |
| 20260504170906 | 75 | 205 | 10.0 | 16.0 | 0.00 | 0.00 | 0.00 | 53 | 1013.5 |
| 20260504160220 | 72 | 207 | 10.0 | 16.0 | 0.00 | 0.00 | 0.00 | 60 | 1014.2 |
| 20260504150141 | 70 | 159 | 4.0 | 16.0 | 0.00 | 0.00 | 0.00 | 63 | 1014.7 |
| 20260504141203 | 67 | 171 | 6.0 | 15.0 | 0.00 | 0.00 | 0.00 | 68 | 1014.7 |
| 20260504140203 | 66 | 205 | 7.0 | 14.0 | 0.00 | 0.00 | 0.00 | 69 | 1014.9 |
| 20260504130151 | 62 | 246 | 3.0 | 12.0 | 0.00 | 0.00 | 0.00 | 76 | 1014.8 |